ニート彗星

291P/NEAT (2023)

English version
Home page
Updated on May 13, 2024

---------------------------------------------------------------------

・ プロフィール

・ 写真集

・ 軌道要素

Epoch 2024 Mar. 31.0 TT = JDT 2460400.5
T 2023 May 4.02480 TT                                   Rudenko
q   2.5654143            (2000.0)            P               Q
n   0.10209884     Peri.  173.50925     +0.62643921     -0.77391958
a   4.5337285      Node   237.66031     +0.71011723     +0.61576053
e   0.4341491      Incl.    6.30977     +0.32141474     +0.14794410
P   9.65
>From 986 observations 2003 Sept. 4-2024 Mar. 2, mean residual 0".8.

・ 光度変化

        m1 = 7.7 + 5 logΔ + 20.0 log r(t + 55)

---------------------------------------------------------------------

軌道要素はM.P.E.C. 2024-E157に掲載されたものです。
光度グラフはComet for Windowsで作成したものです。

---------------------------------------------------------------------

Copyright(C) Seiichi Yoshida (comet@aerith.net). All rights reserved.